BGA347 EGNR-EDHI

Flight info

Callsign BGA347
Flight time 1h 28m
Altitude 33000
Route WAL UL975 GOLES DCT OTR DCT LONAM DCT AGISU DCT RIBSO
Aircraft A337/H-SDE3GHIJ2J3J5M1RVWXY/LB2D1

Departure

Time 2026-05-06 12:54
Airport Hawarden Airport (EGNR)

Arrival

Time 2026-05-06 14:23
Airport Hamburg-Finkenwerder Airport (EDHI)
Time Latitude Longitude Altitude Speed Heading
2026-05-06 12:07 53.17711 -2.97248 15 ft 0 kts 132°
2026-05-06 12:39 53.17726 -2.97275 15 ft 4 kts 134°
2026-05-06 12:40 53.17745 -2.97306 15 ft 4 kts 133°
2026-05-06 12:40 53.17761 -2.97341 17 ft 4 kts 114°
2026-05-06 12:40 53.17764 -2.97376 16 ft 4 kts 72°
2026-05-06 12:40 53.17751 -2.97412 17 ft 4 kts 36°
2026-05-06 12:41 53.17730 -2.97436 17 ft 2 kts 42°
2026-05-06 12:41 53.17730 -2.97437 17 ft 0 kts 42°
2026-05-06 12:45 53.17739 -2.97424 17 ft 4 kts 41°
2026-05-06 12:45 53.17829 -2.97468 16 ft 6 kts 314°
2026-05-06 12:46 53.17829 -2.97469 16 ft 0 kts 314°
2026-05-06 12:47 53.17834 -2.97476 16 ft 3 kts 314°
2026-05-06 12:47 53.17859 -2.97521 18 ft 7 kts 314°
2026-05-06 12:47 53.17896 -2.97579 22 ft 6 kts 328°
2026-05-06 12:48 53.17954 -2.97559 21 ft 14 kts 37°
2026-05-06 12:48 53.18057 -2.97417 20 ft 24 kts 44°
2026-05-06 12:48 53.18197 -2.97212 17 ft 25 kts 41°
2026-05-06 12:48 53.18276 -2.97096 18 ft 16 kts 41°
2026-05-06 12:49 53.18380 -2.96947 19 ft 23 kts 41°
2026-05-06 12:49 53.18482 -2.96737 14 ft 23 kts 42°
2026-05-06 12:49 53.18517 -2.96706 15 ft 3 kts 356°
2026-05-06 12:49 53.18526 -2.96733 15 ft 3 kts 270°
2026-05-06 12:50 53.18504 -2.96767 15 ft 9 kts 223°
2026-05-06 12:50 53.18423 -2.96887 18 ft 29 kts 222°
2026-05-06 12:50 53.18171 -2.97248 17 ft 65 kts 220°
2026-05-06 12:50 53.17911 -2.97623 23 ft 84 kts 221°
2026-05-06 12:51 53.17695 -2.97934 25 ft 4 kts 220°
2026-05-06 12:51 53.17626 -2.98033 25 ft 18 kts 220°
2026-05-06 12:51 53.17546 -2.98147 25 ft 27 kts 220°
2026-05-06 12:51 53.17307 -2.98493 28 ft 41 kts 220°
2026-05-06 12:52 53.17202 -2.98678 29 ft 22 kts 248°
2026-05-06 12:52 53.17148 -2.98775 29 ft 1 kts 178°
2026-05-06 12:52 53.17146 -2.98773 26 ft 0 kts 168°
2026-05-06 12:53 53.17134 -2.98763 27 ft 4 kts 148°
2026-05-06 12:53 53.17139 -2.98740 27 ft 3 kts 57°
2026-05-06 12:53 53.17149 -2.98725 27 ft 1 kts 43°
2026-05-06 12:53 53.17161 -2.98707 26 ft 3 kts 43°
2026-05-06 12:54 53.17224 -2.98609 26 ft 35 kts 42°
2026-05-06 12:54 53.17589 -2.98084 24 ft 102 kts 41°
2026-05-06 12:54 53.18278 -2.97075 61 ft 154 kts 44°
2026-05-06 12:54 53.19104 -2.95872 697 ft 160 kts 42°
2026-05-06 12:55 53.20064 -2.94894 1516 ft 167 kts 14°
2026-05-06 12:55 53.21171 -2.95214 2244 ft 165 kts 330°
2026-05-06 12:55 53.22063 -2.96311 2927 ft 156 kts 323°
2026-05-06 12:55 53.22899 -2.97478 3363 ft 163 kts 322°
2026-05-06 12:56 53.23859 -2.98686 3640 ft 183 kts 327°
2026-05-06 12:56 53.24970 -2.99910 3896 ft 206 kts 329°
2026-05-06 12:56 53.26273 -3.01223 4132 ft 231 kts 331°
2026-05-06 12:56 53.27728 -3.02627 4482 ft 250 kts 332°
2026-05-06 12:57 53.29266 -3.04089 5037 ft 258 kts 333°
2026-05-06 12:57 53.30833 -3.05568 5707 ft 259 kts 332°
2026-05-06 12:57 53.32407 -3.07052 6463 ft 259 kts 332°
2026-05-06 12:57 53.33986 -3.08536 7131 ft 263 kts 330°
2026-05-06 12:58 53.35597 -3.10050 7762 ft 266 kts 330°
2026-05-06 12:58 53.37221 -3.11567 8451 ft 269 kts 333°
2026-05-06 12:58 53.39027 -3.12327 9101 ft 274 kts
2026-05-06 12:58 53.40837 -3.11307 9717 ft 282 kts 34°
2026-05-06 12:59 53.42080 -3.08749 10248 ft 293 kts 65°
2026-05-06 12:59 53.42446 -3.05302 10504 ft 312 kts 90°
2026-05-06 12:59 53.42231 -3.01588 10787 ft 326 kts 96°
2026-05-06 12:59 53.41958 -2.97773 11240 ft 333 kts 94°
2026-05-06 13:00 53.41853 -2.93881 11735 ft 336 kts 88°
2026-05-06 13:00 53.41959 -2.90001 12267 ft 339 kts 83°
2026-05-06 13:00 53.42239 -2.86043 12806 ft 342 kts 80°
2026-05-06 13:00 53.42631 -2.82096 13350 ft 345 kts 78°
2026-05-06 13:01 53.43084 -2.78121 13878 ft 348 kts 77°
2026-05-06 13:01 53.43560 -2.74118 14343 ft 352 kts 77°
2026-05-06 13:01 53.44040 -2.70076 14814 ft 355 kts 77°
2026-05-06 13:01 53.44513 -2.66012 15283 ft 357 kts 77°
2026-05-06 13:02 53.44982 -2.61885 15752 ft 360 kts 78°
2026-05-06 13:02 53.45444 -2.57734 16218 ft 363 kts 78°
2026-05-06 13:02 53.45903 -2.53548 16676 ft 366 kts 78°
2026-05-06 13:02 53.46362 -2.49335 17126 ft 369 kts 78°
2026-05-06 13:03 53.46823 -2.45079 17563 ft 372 kts 78°
2026-05-06 13:03 53.47279 -2.40847 17999 ft 374 kts 78°
2026-05-06 13:03 53.47741 -2.36560 18425 ft 377 kts 78°
2026-05-06 13:03 53.48212 -2.32166 18800 ft 380 kts 78°
2026-05-06 13:04 53.48681 -2.27789 19186 ft 382 kts 78°
2026-05-06 13:04 53.49150 -2.23383 19556 ft 384 kts 79°
2026-05-06 13:04 53.49621 -2.18953 19941 ft 386 kts 79°
2026-05-06 13:04 53.50092 -2.14499 20313 ft 388 kts 79°
2026-05-06 13:05 53.50565 -2.10013 20674 ft 391 kts 79°
2026-05-06 13:05 53.51037 -2.05526 21034 ft 393 kts 79°
2026-05-06 13:05 53.51513 -2.00982 21423 ft 394 kts 79°
2026-05-06 13:05 53.51986 -1.96444 21774 ft 396 kts 79°
2026-05-06 13:06 53.52461 -1.91874 22120 ft 398 kts 79°
2026-05-06 13:06 53.52936 -1.87282 22441 ft 400 kts 79°
2026-05-06 13:06 53.53413 -1.82653 22772 ft 402 kts 79°
2026-05-06 13:06 53.53889 -1.78020 23082 ft 404 kts 79°
2026-05-06 13:07 53.54367 -1.73346 23389 ft 406 kts 80°
2026-05-06 13:07 53.54845 -1.68659 23676 ft 408 kts 80°
2026-05-06 13:07 53.55323 -1.63944 23924 ft 410 kts 80°
2026-05-06 13:07 53.55802 -1.59204 24169 ft 412 kts 80°
2026-05-06 13:08 53.56281 -1.54448 24455 ft 412 kts 80°
2026-05-06 13:08 53.56757 -1.49694 24760 ft 412 kts 80°
2026-05-06 13:08 53.57231 -1.44932 25074 ft 412 kts 80°
2026-05-06 13:08 53.57703 -1.40178 25370 ft 412 kts 81°
2026-05-06 13:09 53.58171 -1.35438 25675 ft 412 kts 81°
2026-05-06 13:09 53.58639 -1.30683 25962 ft 412 kts 81°
2026-05-06 13:09 53.59107 -1.25911 26258 ft 411 kts 81°
2026-05-06 13:09 53.59570 -1.21164 26549 ft 411 kts 81°
2026-05-06 13:10 53.60027 -1.16459 26822 ft 411 kts 81°
2026-05-06 13:10 53.60487 -1.11718 27122 ft 411 kts 81°
2026-05-06 13:10 53.60946 -1.06960 27405 ft 411 kts 81°
2026-05-06 13:10 53.61402 -1.02205 27667 ft 411 kts 81°
2026-05-06 13:11 53.61855 -0.97461 27959 ft 410 kts 81°
2026-05-06 13:11 53.62307 -0.92709 28223 ft 410 kts 81°
2026-05-06 13:11 53.62755 -0.87979 28502 ft 410 kts 81°
2026-05-06 13:11 53.63202 -0.83236 28764 ft 409 kts 82°
2026-05-06 13:12 53.63647 -0.78487 29041 ft 409 kts 82°
2026-05-06 13:12 53.64090 -0.73753 29303 ft 409 kts 82°
2026-05-06 13:12 53.64525 -0.69071 29560 ft 409 kts 82°
2026-05-06 13:12 53.64963 -0.64341 29808 ft 408 kts 82°
2026-05-06 13:13 53.65401 -0.59597 30086 ft 408 kts 82°
2026-05-06 13:13 53.65835 -0.54868 30282 ft 408 kts 82°
2026-05-06 13:13 53.66267 -0.50139 30509 ft 408 kts 82°
2026-05-06 13:13 53.66697 -0.45418 30707 ft 408 kts 82°
2026-05-06 13:14 53.67125 -0.40690 30900 ft 407 kts 82°
2026-05-06 13:14 53.67549 -0.35982 31115 ft 407 kts 82°
2026-05-06 13:14 53.67973 -0.31255 31290 ft 407 kts 82°
2026-05-06 13:14 53.68395 -0.26535 31485 ft 407 kts 82°
2026-05-06 13:15 53.68814 -0.21821 31660 ft 406 kts 82°
2026-05-06 13:15 53.69229 -0.17129 31827 ft 406 kts 82°
2026-05-06 13:15 53.69645 -0.12409 31997 ft 406 kts 83°
2026-05-06 13:15 53.70002 -0.07747 32176 ft 406 kts 85°
2026-05-06 13:16 53.70282 -0.03011 32344 ft 405 kts 86°
2026-05-06 13:16 53.70518 0.01740 32499 ft 404 kts 86°
2026-05-06 13:16 53.70737 0.06470 32689 ft 404 kts 87°
2026-05-06 13:16 53.70953 0.11200 32857 ft 403 kts 87°
2026-05-06 13:17 53.71172 0.15918 33006 ft 404 kts 86°
2026-05-06 13:17 53.71626 0.25446 33032 ft 410 kts 86°
2026-05-06 13:18 53.72089 0.35019 33029 ft 412 kts 86°
2026-05-06 13:18 53.72551 0.44659 33021 ft 412 kts 86°
2026-05-06 13:19 53.73005 0.54299 33017 ft 411 kts 86°
2026-05-06 13:19 53.73449 0.63941 33018 ft 411 kts 87°
2026-05-06 13:20 53.73883 0.73517 33024 ft 411 kts 87°
2026-05-06 13:20 53.74312 0.83168 33022 ft 413 kts 87°
2026-05-06 13:21 53.74734 0.92878 33022 ft 414 kts 87°
2026-05-06 13:21 53.75150 1.02579 33015 ft 414 kts 87°
2026-05-06 13:22 53.75557 1.12269 33016 ft 412 kts 87°
2026-05-06 13:22 53.75955 1.21915 33022 ft 411 kts 88°
2026-05-06 13:23 53.76344 1.31566 33016 ft 411 kts 88°
2026-05-06 13:23 53.76726 1.41218 33012 ft 411 kts 88°
2026-05-06 13:24 53.77098 1.50811 33011 ft 411 kts 88°
2026-05-06 13:24 53.77464 1.60456 33011 ft 411 kts 88°
2026-05-06 13:25 53.77822 1.70095 33006 ft 410 kts 88°
2026-05-06 13:25 53.78172 1.79733 33007 ft 410 kts 88°
2026-05-06 13:26 53.78514 1.89364 33004 ft 410 kts 88°
2026-05-06 13:26 53.78846 1.98927 33004 ft 410 kts 88°
2026-05-06 13:27 53.79173 2.08555 33006 ft 410 kts 88°
2026-05-06 13:27 53.79492 2.18176 33002 ft 409 kts 88°
2026-05-06 13:28 53.79802 2.27782 33003 ft 409 kts 88°
2026-05-06 13:28 53.80105 2.37397 32997 ft 409 kts 88°
2026-05-06 13:29 53.80400 2.47013 33002 ft 409 kts 88°
2026-05-06 13:29 53.80686 2.56567 32997 ft 409 kts 89°
2026-05-06 13:30 53.80965 2.66166 32991 ft 408 kts 89°
2026-05-06 13:30 53.81236 2.75738 32995 ft 407 kts 89°
2026-05-06 13:31 53.81499 2.85298 32993 ft 407 kts 89°
2026-05-06 13:31 53.81752 2.94794 32993 ft 406 kts 89°
2026-05-06 13:32 53.82000 3.04355 32996 ft 406 kts 89°
2026-05-06 13:32 53.82240 3.13920 32990 ft 407 kts 89°
2026-05-06 13:33 53.82473 3.23481 32995 ft 406 kts 90°
2026-05-06 13:33 53.82697 3.33031 32995 ft 406 kts 90°
2026-05-06 13:34 53.82914 3.42584 32993 ft 406 kts 90°
2026-05-06 13:34 53.83124 3.52142 32991 ft 406 kts 90°
2026-05-06 13:35 53.83326 3.61698 32986 ft 406 kts 90°
2026-05-06 13:35 53.83521 3.71266 32987 ft 406 kts 90°
2026-05-06 13:36 53.83707 3.80788 32979 ft 405 kts 90°
2026-05-06 13:36 53.83885 3.90326 32981 ft 405 kts 90°
2026-05-06 13:37 53.84050 3.98261 32976 ft 406 kts 90°
2026-05-06 13:37 53.84341 4.09336 32977 ft 406 kts 89°
2026-05-06 13:38 53.84594 4.18886 32957 ft 405 kts 90°
2026-05-06 13:38 53.84796 4.26821 32972 ft 404 kts 90°
2026-05-06 13:39 53.85025 4.36318 32969 ft 403 kts 90°
2026-05-06 13:39 53.85245 4.45816 32968 ft 403 kts 90°
2026-05-06 13:40 53.85493 4.56925 32965 ft 403 kts 90°
2026-05-06 13:40 53.85663 4.64819 32972 ft 403 kts 90°
2026-05-06 13:41 53.85861 4.74321 32965 ft 403 kts 90°
2026-05-06 13:41 53.86051 4.83809 32965 ft 403 kts 90°
2026-05-06 13:42 53.86234 4.93301 32964 ft 403 kts 90°
2026-05-06 13:42 53.86409 5.02745 32964 ft 403 kts 90°
2026-05-06 13:43 53.86577 5.12246 32964 ft 403 kts 91°
2026-05-06 13:43 53.86737 5.21747 32958 ft 403 kts 91°
2026-05-06 13:44 53.86890 5.31225 32967 ft 401 kts 91°
2026-05-06 13:44 53.87035 5.40672 32965 ft 401 kts 91°
2026-05-06 13:45 53.87172 5.50114 32968 ft 401 kts 91°
2026-05-06 13:45 53.87363 5.64284 32957 ft 403 kts 91°
2026-05-06 13:46 53.87483 5.73779 32952 ft 403 kts 91°
2026-05-06 13:46 53.87595 5.83272 32946 ft 401 kts 91°
2026-05-06 13:47 53.87699 5.92730 32939 ft 401 kts 92°
2026-05-06 13:47 53.87796 6.02183 32939 ft 401 kts 92°
2026-05-06 13:48 53.87884 6.11623 32939 ft 401 kts 92°
2026-05-06 13:48 53.87966 6.21073 32938 ft 401 kts 92°
2026-05-06 13:49 53.88040 6.30518 32932 ft 401 kts 92°
2026-05-06 13:49 53.88107 6.39891 32939 ft 399 kts 92°
2026-05-06 13:50 53.88163 6.49285 32940 ft 398 kts 93°
2026-05-06 13:50 53.88098 6.58672 32935 ft 398 kts 94°
2026-05-06 13:51 53.88030 6.63358 32767 ft 395 kts 95°
2026-05-06 13:51 53.87956 6.67994 32488 ft 391 kts 95°
2026-05-06 13:51 53.87881 6.72595 32210 ft 391 kts 95°
2026-05-06 13:51 53.87807 6.77180 31955 ft 391 kts 95°
2026-05-06 13:52 53.87734 6.81790 31703 ft 391 kts 95°
2026-05-06 13:52 53.87661 6.86389 31431 ft 390 kts 95°
2026-05-06 13:52 53.87589 6.90984 31171 ft 389 kts 95°
2026-05-06 13:52 53.87516 6.95504 30922 ft 389 kts 95°
2026-05-06 13:53 53.87441 7.00096 30660 ft 389 kts 95°
2026-05-06 13:53 53.87365 7.04675 30411 ft 389 kts 95°
2026-05-06 13:53 53.87286 7.09248 30171 ft 389 kts 95°
2026-05-06 13:53 53.87206 7.13826 29899 ft 388 kts 95°
2026-05-06 13:54 53.87124 7.18404 29620 ft 389 kts 95°
2026-05-06 13:54 53.87040 7.22996 29337 ft 389 kts 95°
2026-05-06 13:54 53.86956 7.27540 28956 ft 384 kts 95°
2026-05-06 13:54 53.86871 7.32047 28432 ft 381 kts 95°
2026-05-06 13:55 53.86784 7.36522 27878 ft 379 kts 94°
2026-05-06 13:55 53.86696 7.40977 27352 ft 378 kts 94°
2026-05-06 13:55 53.86606 7.45423 26811 ft 377 kts 95°
2026-05-06 13:55 53.86514 7.49851 26265 ft 376 kts 94°
2026-05-06 13:56 53.86421 7.54266 25713 ft 378 kts 95°
2026-05-06 13:56 53.86325 7.58736 25142 ft 380 kts 94°
2026-05-06 13:56 53.86227 7.63212 24561 ft 382 kts 94°
2026-05-06 13:56 53.86127 7.67727 23972 ft 384 kts 95°
2026-05-06 13:57 53.86025 7.72271 23341 ft 386 kts 94°
2026-05-06 13:57 53.85922 7.76808 22858 ft 381 kts 95°
2026-05-06 13:57 53.85820 7.81288 22473 ft 380 kts 94°
2026-05-06 13:57 53.85716 7.85744 22064 ft 378 kts 94°
2026-05-06 13:58 53.85612 7.90108 21651 ft 372 kts 95°
2026-05-06 13:58 53.85508 7.94467 21228 ft 366 kts 94°
2026-05-06 13:58 53.85402 7.98754 20835 ft 362 kts 94°
2026-05-06 13:58 53.85296 8.03008 20447 ft 361 kts 94°
2026-05-06 13:59 53.85187 8.07259 20042 ft 360 kts 94°
2026-05-06 13:59 53.85078 8.11484 19642 ft 358 kts 94°
2026-05-06 13:59 53.84968 8.15672 19257 ft 355 kts 95°
2026-05-06 13:59 53.84858 8.19829 18855 ft 353 kts 95°
2026-05-06 14:00 53.84747 8.23969 18450 ft 351 kts 95°
2026-05-06 14:00 53.84636 8.28083 18060 ft 348 kts 95°
2026-05-06 14:00 53.84524 8.32162 17634 ft 346 kts 95°
2026-05-06 14:00 53.84410 8.36241 17251 ft 345 kts 94°
2026-05-06 14:01 53.84295 8.40280 16864 ft 343 kts 95°
2026-05-06 14:01 53.84182 8.44296 16487 ft 338 kts 94°
2026-05-06 14:01 53.84069 8.48253 16114 ft 335 kts 94°
2026-05-06 14:01 53.83955 8.52174 15731 ft 333 kts 94°
2026-05-06 14:02 53.83839 8.56098 15362 ft 332 kts 94°
2026-05-06 14:02 53.83723 8.59995 14993 ft 330 kts 94°
2026-05-06 14:02 53.83605 8.63872 14624 ft 328 kts 93°
2026-05-06 14:02 53.83488 8.67707 14255 ft 326 kts 93°
2026-05-06 14:03 53.83370 8.71538 13896 ft 324 kts 93°
2026-05-06 14:03 53.83252 8.75332 13500 ft 322 kts 93°
2026-05-06 14:03 53.83133 8.79115 13100 ft 320 kts 93°
2026-05-06 14:03 53.83015 8.82827 12764 ft 318 kts 93°
2026-05-06 14:04 53.82896 8.86560 12402 ft 317 kts 92°
2026-05-06 14:04 53.82776 8.90270 12040 ft 315 kts 92°
2026-05-06 14:04 53.82656 8.93956 11689 ft 312 kts 93°
2026-05-06 14:04 53.82536 8.97592 11330 ft 306 kts 92°
2026-05-06 14:05 53.82417 9.01196 10981 ft 306 kts 92°
2026-05-06 14:05 53.82075 9.04815 10652 ft 319 kts 109°
2026-05-06 14:05 53.80928 9.08059 10340 ft 327 kts 132°
2026-05-06 14:05 53.79227 9.10554 10026 ft 319 kts 142°
2026-05-06 14:06 53.77474 9.12710 9874 ft 303 kts 144°
2026-05-06 14:06 53.75786 9.14749 9867 ft 294 kts 144°
2026-05-06 14:06 53.74114 9.16767 9872 ft 295 kts 143°
2026-05-06 14:06 53.72436 9.18780 9874 ft 296 kts 144°
2026-05-06 14:07 53.70776 9.20770 9864 ft 296 kts 144°
2026-05-06 14:07 53.69083 9.22812 9874 ft 308 kts 144°
2026-05-06 14:07 53.67286 9.24987 9874 ft 323 kts 144°
2026-05-06 14:07 53.65439 9.27223 9866 ft 326 kts 144°
2026-05-06 14:08 53.63643 9.29388 9858 ft 308 kts 144°
2026-05-06 14:08 53.61937 9.31418 9860 ft 293 kts 143°
2026-05-06 14:08 53.60273 9.33329 9863 ft 288 kts 144°
2026-05-06 14:08 53.58620 9.35228 9868 ft 287 kts 142°
2026-05-06 14:09 53.57283 9.37660 9847 ft 282 kts 118°
2026-05-06 14:09 53.56678 9.40746 9352 ft 280 kts 93°
2026-05-06 14:09 53.56958 9.43935 8912 ft 275 kts 68°
2026-05-06 14:09 53.58017 9.46592 8448 ft 274 kts 48°
2026-05-06 14:10 53.59373 9.48806 8031 ft 271 kts 44°
2026-05-06 14:10 53.60764 9.50932 7882 ft 269 kts 44°
2026-05-06 14:10 53.62156 9.53055 7868 ft 270 kts 44°
2026-05-06 14:10 53.63535 9.55207 7874 ft 270 kts 44°
2026-05-06 14:11 53.64893 9.57336 7878 ft 270 kts 43°
2026-05-06 14:11 53.66203 9.59608 7875 ft 270 kts 56°
2026-05-06 14:11 53.66886 9.62504 7876 ft 268 kts 83°
2026-05-06 14:11 53.66688 9.65605 7875 ft 269 kts 109°
2026-05-06 14:12 53.65653 9.68218 7876 ft 273 kts 137°
2026-05-06 14:12 53.63994 9.69773 7883 ft 277 kts 164°
2026-05-06 14:12 53.62068 9.69933 7877 ft 280 kts 186°
2026-05-06 14:12 53.60145 9.69239 7436 ft 286 kts 192°
2026-05-06 14:13 53.58301 9.67978 6985 ft 287 kts 212°
2026-05-06 14:13 53.56879 9.65633 6577 ft 287 kts 230°
2026-05-06 14:13 53.55709 9.62938 6141 ft 284 kts 233°
2026-05-06 14:13 53.54579 9.60206 5642 ft 283 kts 234°
2026-05-06 14:14 53.53455 9.57487 5191 ft 281 kts 234°
2026-05-06 14:14 53.52360 9.54837 5013 ft 270 kts 234°
2026-05-06 14:14 53.51322 9.52325 4968 ft 252 kts 234°
2026-05-06 14:14 53.50343 9.49955 4995 ft 244 kts 234°
2026-05-06 14:15 53.49373 9.47613 4995 ft 244 kts 234°
2026-05-06 14:15 53.48418 9.45297 4990 ft 244 kts 234°
2026-05-06 14:15 53.47452 9.42958 4957 ft 244 kts 232°
2026-05-06 14:15 53.46203 9.41050 4512 ft 244 kts 203°
2026-05-06 14:16 53.44594 9.40463 4124 ft 234 kts 171°
2026-05-06 14:16 53.43098 9.41256 4009 ft 224 kts 148°
2026-05-06 14:16 53.41759 9.42559 3969 ft 221 kts 143°
2026-05-06 14:16 53.40683 9.44322 3972 ft 214 kts 114°
2026-05-06 14:17 53.40318 9.46680 3860 ft 209 kts 90°
2026-05-06 14:17 53.40364 9.49088 3695 ft 207 kts 84°
2026-05-06 14:17 53.40483 9.51493 3490 ft 207 kts 84°
2026-05-06 14:17 53.40596 9.53885 3251 ft 204 kts 84°
2026-05-06 14:18 53.40874 9.56166 3044 ft 198 kts 67°
2026-05-06 14:18 53.41545 9.58139 2967 ft 200 kts 56°
2026-05-06 14:18 53.42395 9.59998 2987 ft 200 kts 53°
2026-05-06 14:18 53.43261 9.61810 2983 ft 199 kts 53°
2026-05-06 14:19 53.44102 9.63586 2895 ft 188 kts 53°
2026-05-06 14:19 53.44636 9.64730 2759 ft 181 kts 53°
2026-05-06 14:19 53.45398 9.66350 2497 ft 173 kts 52°
2026-05-06 14:19 53.46356 9.68369 2149 ft 157 kts 52°
2026-05-06 14:20 53.46800 9.69307 2002 ft 146 kts 52°
2026-05-06 14:20 53.47383 9.70541 1810 ft 127 kts 51°
2026-05-06 14:20 53.47903 9.71642 1668 ft 120 kts 51°
2026-05-06 14:20 53.48423 9.72740 1504 ft 121 kts 51°
2026-05-06 14:21 53.48956 9.73867 1339 ft 123 kts 51°
2026-05-06 14:21 53.49487 9.74991 1148 ft 123 kts 51°
2026-05-06 14:21 53.50026 9.76142 1006 ft 127 kts 51°
2026-05-06 14:21 53.50588 9.77317 751 ft 130 kts 51°
2026-05-06 14:22 53.51157 9.78490 569 ft 128 kts 52°
2026-05-06 14:22 53.51727 9.79664 395 ft 131 kts 52°
2026-05-06 14:22 53.52303 9.80850 224 ft 131 kts 53°
2026-05-06 14:22 53.52853 9.82073 99 ft 132 kts 51°
2026-05-06 14:23 53.53408 9.83281 28 ft 127 kts 54°
2026-05-06 14:23 53.53815 9.84151 27 ft 54 kts 51°
2026-05-06 14:23 53.53944 9.84423 27 ft 29 kts 51°
2026-05-06 14:23 53.54077 9.84709 26 ft 30 kts 52°
2026-05-06 14:24 53.54190 9.84946 28 ft 23 kts 52°
2026-05-06 14:24 53.54261 9.85067 30 ft 6 kts 353°
2026-05-06 14:24 53.54277 9.85036 30 ft 5 kts 292°
2026-05-06 14:24 53.54246 9.84977 28 ft 9 kts 201°
2026-05-06 14:25 53.54173 9.84910 28 ft 14 kts 225°
2026-05-06 14:25 53.54097 9.84752 27 ft 21 kts 231°
2026-05-06 14:25 53.53986 9.84518 27 ft 30 kts 231°
2026-05-06 14:25 53.53838 9.84205 27 ft 39 kts 231°
2026-05-06 14:26 53.53660 9.83828 28 ft 41 kts 232°
2026-05-06 14:26 53.53491 9.83469 30 ft 37 kts 233°
2026-05-06 14:26 53.53356 9.83182 31 ft 23 kts 236°
2026-05-06 14:26 53.53371 9.83046 29 ft 9 kts 321°
2026-05-06 14:27 53.53428 9.82970 31 ft 9 kts 321°
2026-05-06 14:27 53.53434 9.82962 31 ft 3 kts 321°
2026-05-06 14:27 53.53477 9.82903 29 ft 12 kts 320°
2026-05-06 14:27 53.53542 9.82828 30 ft 4 kts 343°
2026-05-06 14:28 53.53558 9.82828 27 ft 2 kts
2026-05-06 14:28 53.53575 9.82838 27 ft 2 kts 27°
2026-05-06 14:28 53.53589 9.82860 31 ft 4 kts 43°
2026-05-06 14:28 53.53602 9.82883 28 ft 0 kts 46°
2026-05-06 14:29 53.53605 9.82889 29 ft 0 kts 47°